Location: Doschendorf
(50.0069°N, 11.0602°E)
Time: 14:56:23
(UTC+00:00)

Cosmos 1238 Rocket - Pass Details

Date: 17 November 2019
Orbit: 374 x 1033 km, 82.9° (Epoch: 06 December)

Event Time Altitude Azimuth Distance (km) Brightness Sun altitude
Rises 16:43:01 0° 346° (NNW) 3,050 6.6 -11.7°
Reaches altitude 10° 16:45:35 10° 340° (NNW) 2,011 5.8 -12.1°
Maximum altitude 16:49:42 41° 270° (W) 794 4.2 -12.7°
Drops below altitude 10° 16:53:08 10° 198° (SSW) 1,664 5.7 -13.3°
Sets 16:55:06 0° 191° (S) 2,457 6.5 -13.6°
